EW0420 Weather Reports


time (UTC)temp
C
wind
direction
speed
KPH
gust
KPH
rain 1hr
cm
rain 24hr
cm
rain mn
cm
humidity
%
barometer
mb
20260502191244 11 95 6.4 8.0 0.00 0.13 0.13 82 1014.5
20260502190741 11 153 4.8 8.0 0.00 0.13 0.13 83 1014.4
20260502190239 12 130 6.4 11.3 0.00 0.13 0.13 81 1014.4
20260502185738 12 128 3.2 8.0 0.00 0.13 0.13 83 1014.7
20260502185235 11 85 6.4 11.3 0.00 0.13 0.13 82 1014.7
20260502184732 11 90 6.4 8.0 0.00 0.13 0.13 82 1014.7
20260502184227 11 119 4.8 11.3 0.00 0.13 0.13 83 1014.7
20260502183724 12 86 8.0 14.5 0.00 0.13 0.13 82 1014.8
20260502183220 11 128 6.4 9.7 0.00 0.13 0.13 81 1015.0
20260502182716 11 138 6.4 9.7 0.00 0.13 0.13 81 1014.7
20260502182211 11 127 6.4 12.9 0.00 0.13 0.13 81 1014.8
20260502181709 11 147 8.0 11.3 0.00 0.13 0.13 80 1014.7
20260502181208 12 141 6.4 9.7 0.00 0.13 0.13 80 1015.0
20260502180704 11 157 8.0 9.7 0.00 0.13 0.13 81 1015.0
20260502180202 11 127 8.0 11.3 0.00 0.13 0.13 80 1014.9
20260502170126 11 119 3.2 8.0 0.00 0.13 0.13 84 1015.4
20260502164113 11 134 3.2 3.2 0.00 0.13 0.13 84 1015.4
20260502163609 11 125 3.2 4.8 0.00 0.13 0.13 84 1015.6
20260502163105 11 139 3.2 4.8 0.00 0.13 0.13 84 1015.4
20260502162602 11 128 4.8 8.0 0.00 0.13 0.13 84 1015.6
20260502162059 11 156 4.8 4.8 0.00 0.13 0.13 84 1015.6
20260502161556 11 149 1.6 1.6 0.00 0.13 0.13 87 1015.7
20260502161054 10 149 1.6 3.2 0.00 0.13 0.13 87 1015.9
20260502160551 10 151 3.2 3.2 0.00 0.13 0.13 87 1015.8
20260502152005 10 135 3.2 4.8 0.00 0.13 0.13 89 1016.2
20260502151501 10 134 1.6 3.2 0.00 0.13 0.13 90 1016.3
20260502150959 10 141 3.2 8.0 0.00 0.13 0.13 89 1016.2
20260502150456 10 130 3.2 8.0 0.00 0.13 0.13 92 1015.8
20260502130341 8 77 0.0 1.6 0.00 0.13 0.13 99 1016.2
20260502123323 8 147 0.0 0.0 0.13 0.05 0.05 98 1017.1
20260502122821 8 147 0.0 1.6 0.00 0.03 0.03 98 1017.0
20260502122316 8 147 1.6 1.6 0.00 0.03 0.03 97 1017.1
20260502121815 8 146 1.6 3.2 0.18 0.03 0.03 97 1017.2
20260502121312 8 148 0.0 1.6 0.18 0.03 0.03 97 1016.9
20260502120809 8 148 1.6 1.6 0.00 0.00 0.00 97 1016.9
20260502120305 8 149 0.0 1.6 0.00 0.00 0.00 97 1016.7
20260502115803 8 157 3.2 4.8 0.00 0.00 0.00 97 1017.0
20260502115300 8 145 1.6 3.2 0.00 0.00 0.00 97 1016.9
20260502114756 8 153 1.6 3.2 0.00 0.00 0.00 97 1016.8
20260502114253 7 153 1.6 3.2 0.00 0.00 0.00 97 1016.4
20260502113750 7 144 1.6 3.2 0.00 0.00 0.00 97 1016.6
20260502113248 7 144 0.0 1.6 0.00 0.00 0.00 97 1016.5
20260502112746 7 144 1.6 3.2 0.00 0.00 0.00 97 1016.4
20260502112243 7 144 0.0 1.6 0.00 0.00 0.00 97 1016.3
20260502111740 7 144 1.6 1.6 0.00 0.00 0.00 97 1016.0
20260502111237 7 144 1.6 1.6 0.00 0.00 0.00 96 1015.8
20260502110735 7 144 1.6 1.6 0.00 0.00 0.00 95 1016.2
20260502110232 7 144 0.0 3.2 0.00 0.00 0.00 94 1016.5
20260502105730 7 151 3.2 3.2 0.00 0.00 0.00 94 1016.4
20260502105226 7 145 3.2 4.8 0.00 0.00 0.00 93 1016.4
20260502104724 7 151 3.2 3.2 0.00 0.00 0.00 93 1016.1
20260502104222 7 164 4.8 4.8 0.00 0.00 0.00 92 1016.1
20260502103719 7 144 1.6 3.2 0.00 0.00 0.00 92 1016.1
20260502103217 7 144 0.0 1.6 0.00 0.00 0.00 92 1016.0
20260502102713 7 144 3.2 3.2 0.00 0.00 0.00 92 1015.9
20260502102210 7 146 1.6 1.6 0.00 0.00 0.00 93 1015.9
20260502101708 7 146 1.6 3.2 0.00 0.00 0.00 92 1015.8
20260502101206 7 146 1.6 3.2 0.00 0.00 0.00 92 1015.8
20260502100704 7 146 0.0 0.0 0.00 0.00 0.00 93 1015.7
20260502100202 7 146 0.0 1.6 0.00 0.00 0.00 93 1015.6
20260502091136 7 157 1.6 3.2 0.00 0.00 0.00 92 1015.5
20260502090633 7 149 1.6 3.2 0.00 0.00 0.00 91 1015.6
20260502090130 7 143 0.0 1.6 0.00 0.00 0.00 92 1015.8
20260502071528 8 119 0.0 1.6 0.00 0.00 0.00 83 1015.4
20260502071026 8 119 1.6 1.6 0.00 0.00 0.00 82 1015.4
20260502070523 8 119 1.6 4.8 0.00 0.00 0.00 82 1015.4
20260502070022 8 132 1.6 3.2 0.00 0.00 0.00 83 1015.5
20260502065520 8 117 1.6 1.6 0.00 0.00 0.00 83 1015.3
20260502065017 8 117 0.0 1.6 0.00 0.00 0.00 82 1015.5
20260502064515 8 117 0.0 0.0 0.00 0.00 0.00 81 1015.5
20260502064012 8 117 0.0 1.6 0.00 0.00 0.00 81 1015.4
20260502063510 8 120 0.0 0.0 0.00 0.00 0.00 81 1015.6
20260502063008 8 125 0.0 1.6 0.00 0.00 0.00 82 1015.7
20260502062504 8 133 1.6 3.2 0.00 0.00 0.00 80 1015.9
20260502062003 8 133 4.8 4.8 0.00 0.00 0.00 80 1015.8
20260502061500 8 122 1.6 3.2 0.00 0.00 0.00 81 1015.7
20260502060956 8 116 0.0 1.6 0.00 0.00 0.00 81 1015.8
20260502060451 8 123 1.6 1.6 0.00 0.00 0.00 80 1015.7
20260502055949 9 126 0.0 1.6 0.00 0.00 0.00 79 1015.8
20260502055446 9 119 1.6 3.2 0.00 0.00 0.00 78 1015.6
20260502054940 9 129 1.6 4.8 0.00 0.00 0.00 78 1015.7
20260502054438 9 133 3.2 3.2 0.00 0.00 0.00 77 1015.7
20260502053935 9 121 1.6 3.2 0.00 0.00 0.00 77 1015.6
20260502053432 9 133 1.6 3.2 0.00 0.00 0.00 77 1015.7
20260502052930 9 135 3.2 3.2 0.00 0.00 0.00 77 1015.7
20260502052428 9 132 1.6 3.2 0.00 0.00 0.00 76 1015.6
20260502051926 9 133 1.6 3.2 0.00 0.00 0.00 76 1015.5
20260502051424 9 133 1.6 3.2 0.00 0.00 0.00 75 1015.4
20260502050920 9 133 1.6 3.2 0.00 0.00 0.00 75 1015.6
20260502050417 9 132 1.6 1.6 0.00 0.00 0.00 75 1015.6
20260502045914 9 132 1.6 1.6 0.00 0.00 0.00 76 1015.4
20260502045411 9 132 3.2 3.2 0.00 0.00 0.00 75 1015.4
20260502044908 9 132 1.6 3.2 0.00 0.00 0.00 74 1015.4
20260502044403 9 132 1.6 3.2 0.00 0.00 0.00 74 1015.3
20260502043900 9 132 1.6 1.6 0.00 0.00 0.00 74 1015.4
20260502043358 9 132 1.6 1.6 0.00 0.00 0.00 74 1015.5
20260502042857 9 132 1.6 1.6 0.00 0.00 0.00 76 1015.6
20260502042355 9 133 1.6 1.6 0.00 0.00 0.00 76 1015.3
20260502041852 8 133 0.0 1.6 0.00 0.00 0.00 79 1015.2
20260502041349 8 132 1.6 1.6 0.00 0.00 0.00 80 1015.6
20260502040847 8 132 1.6 1.6 0.00 0.00 0.00 79 1015.9
20260502040344 8 133 0.0 0.0 0.00 0.00 0.00 77 1015.6
20260502035840 8 132 0.0 0.0 0.00 0.00 0.00 75 1015.6
20260502035336 9 132 0.0 1.6 0.00 0.00 0.00 74 1015.9
20260502034834 9 132 0.0 0.0 0.00 0.00 0.00 73 1015.7
20260502034332 10 132 0.0 1.6 0.00 0.00 0.00 69 1015.8
20260502033830 10 133 0.0 1.6 0.00 0.00 0.00 68 1015.7
20260502033328 10 132 1.6 1.6 0.00 0.00 0.00 70 1015.8
20260502032824 10 132 1.6 1.6 0.00 0.00 0.00 71 1015.7
20260502032320 10 132 1.6 1.6 0.00 0.00 0.00 69 1015.6
20260502031818 10 132 1.6 1.6 0.00 0.00 0.00 69 1015.7
20260502031316 10 132 1.6 1.6 0.00 0.00 0.00 70 1015.7
20260502030814 10 132 1.6 1.6 0.00 0.00 0.00 70 1015.9
20260502030312 10 132 1.6 3.2 0.00 0.00 0.00 69 1015.6
20260502025809 10 132 1.6 3.2 0.00 0.00 0.00 70 1016.0
20260502025307 9 132 1.6 3.2 0.00 0.00 0.00 70 1015.8
20260502024805 8 132 1.6 1.6 0.00 0.00 0.00 77 1015.9
20260502024302 8 132 0.0 0.0 0.00 0.00 0.00 76 1015.6
20260502023800 8 132 0.0 0.0 0.00 0.00 0.00 77 1015.9
20260502023258 8 132 0.0 0.0 0.00 0.00 0.00 75 1015.7
20260502022755 8 132 0.0 0.0 0.00 0.00 0.00 74 1015.7
20260502022251 8 132 0.0 0.0 0.00 0.00 0.00 75 1015.9
20260502021748 8 132 0.0 0.0 0.00 0.00 0.00 77 1015.8
20260502021245 8 132 0.0 1.6 0.00 0.00 0.00 77 1015.6
20260502020743 7 132 0.0 1.6 0.00 0.00 0.00 77 1015.8
20260502020240 7 132 0.0 1.6 0.00 0.00 0.00 78 1015.9
20260502015738 7 132 0.0 4.8 0.00 0.00 0.00 78 1015.8
20260502015233 7 162 0.0 1.6 0.00 0.00 0.00 74 1015.4
20260502014731 7 162 0.0 0.0 0.00 0.00 0.00 74 1015.7
20260502014228 7 162 1.6 1.6 0.00 0.00 0.00 74 1015.8
20260502013724 7 162 0.0 1.6 0.00 0.00 0.00 74 1015.8
20260502013220 7 162 0.0 1.6 0.00 0.00 0.00 74 1015.7
20260502012717 7 162 0.0 0.0 0.00 0.00 0.00 75 1015.9
20260502012215 7 162 0.0 0.0 0.00 0.00 0.00 74 1015.7
20260502011712 8 162 0.0 0.0 0.00 0.00 0.00 73 1015.5
20260502011207 8 162 0.0 0.0 0.00 0.00 0.00 73 1015.4
20260502010706 8 162 0.0 0.0 0.00 0.00 0.00 73 1015.5
20260502010201 8 162 0.0 0.0 0.00 0.00 0.00 71 1015.4
20260502005658 8 162 0.0 0.0 0.00 0.00 0.00 71 1015.4
20260502005156 8 162 0.0 0.0 0.00 0.00 0.00 65 1015.1
20260502004652 8 162 0.0 0.0 0.00 0.00 0.00 64 1015.2
20260502004149 9 162 0.0 0.0 0.00 0.00 0.00 64 1015.0
20260502003647 10 162 0.0 0.0 0.00 0.00 0.00 57 1015.3
20260502003144 10 162 0.0 0.0 0.00 0.00 0.00 55 1015.2
20260502002640 10 162 0.0 0.0 0.00 0.00 0.00 56 1015.0
20260502002137 10 162 0.0 0.0 0.00 0.00 0.00 55 1014.8
20260502001635 10 162 0.0 0.0 0.00 0.00 0.00 55 1014.8
20260502001132 11 162 0.0 0.0 0.00 0.00 0.00 52 1014.9
20260502000630 11 162 0.0 0.0 0.00 0.00 0.00 52 1014.7
20260502000127 12 162 0.0 0.0 0.00 0.00 0.00 51 1014.4
20260501235623 12 162 0.0 0.0 0.00 0.00 0.00 46 1014.7
20260501235119 12 162 0.0 0.0 0.00 0.00 0.00 45 1014.3
20260501234615 12 162 0.0 0.0 0.00 0.00 0.00 43 1014.4
20260501234112 13 162 0.0 0.0 0.00 0.00 0.00 42 1014.3
20260501233611 13 162 0.0 0.0 0.00 0.00 0.00 41 1014.1
20260501233108 13 162 0.0 0.0 0.00 0.00 0.00 40 1014.4
20260501232603 14 162 0.0 1.6 0.00 0.00 0.00 40 1014.3
20260501232101 14 162 0.0 0.0 0.00 0.00 0.00 39 1014.0
20260501231558 15 163 0.0 1.6 0.00 0.00 0.00 39 1014.1
20260501231056 15 171 0.0 3.2 0.00 0.00 0.00 38 1013.7
20260501230555 15 175 4.8 4.8 0.00 0.00 0.00 38 1013.9
20260501230052 15 160 1.6 4.8 0.00 0.00 0.00 38 1014.0
20260501225550 15 153 1.6 3.2 0.00 0.00 0.00 37 1013.6
20260501225046 15 157 1.6 3.2 0.00 0.00 0.00 38 1013.7
20260501224544 15 163 4.8 8.0 0.00 0.00 0.00 39 1013.6
20260501224040 15 217 6.4 8.0 0.00 0.00 0.00 37 1013.5
20260501223537 15 143 3.2 8.0 0.00 0.00 0.00 36 1013.4
20260501223033 15 109 1.6 8.0 0.00 0.00 0.00 35 1013.4
20260501222530 15 138 4.8 9.7 0.00 0.00 0.00 36 1013.6
20260501222027 15 147 1.6 8.0 0.00 0.00 0.00 37 1013.8
20260501221523 15 120 6.4 9.7 0.00 0.00 0.00 38 1013.6
20260501221021 15 162 3.2 8.0 0.00 0.00 0.00 37 1013.8
20260501220518 16 159 4.8 8.0 0.00 0.00 0.00 37 1013.5
20260501220015 16 173 4.8 8.0 0.00 0.00 0.00 39 1013.5
20260501215511 15 161 4.8 11.3 0.00 0.00 0.00 36 1013.3
20260501215007 16 263 4.8 4.8 0.00 0.00 0.00 36 1013.6
20260501214502 15 180 4.8 8.0 0.00 0.00 0.00 40 1013.6
20260501213958 15 270 4.8 8.0 0.00 0.00 0.00 36 1013.6
20260501213455 16 168 6.4 9.7 0.00 0.00 0.00 35 1013.4
20260501212950 16 183 1.6 8.0 0.00 0.00 0.00 39 1013.5
20260501212447 16 230 4.8 8.0 0.00 0.00 0.00 36 1013.5
20260501211944 15 180 4.8 9.7 0.00 0.00 0.00 36 1013.5
20260501211442 16 166 4.8 9.7 0.00 0.00 0.00 36 1013.3
20260501210939 16 155 4.8 8.0 0.00 0.00 0.00 36 1013.6
20260501210435 16 181 6.4 11.3 0.00 0.00 0.00 35 1013.3
20260501205932 16 175 9.7 11.3 0.00 0.00 0.00 35 1013.5
20260501205429 16 159 6.4 11.3 0.00 0.00 0.00 36 1013.5
20260501204926 16 180 4.8 9.7 0.00 0.00 0.00 36 1013.1
20260501204422 16 153 4.8 8.0 0.00 0.00 0.00 35 1013.0
20260501203918 16 180 3.2 9.7 0.00 0.00 0.00 36 1013.3
20260501203415 16 160 1.6 8.0 0.00 0.00 0.00 34 1013.1
20260501202913 16 254 9.7 12.9 0.00 0.00 0.00 33 1013.3
20260501202410 16 153 3.2 12.9 0.00 0.00 0.00 37 1013.1
20260501201906 16 179 6.4 9.7 0.00 0.00 0.00 35 1012.9
20260501201403 17 164 9.7 11.3 0.00 0.00 0.00 36 1013.0
20260501200859 16 81 0.0 14.5 0.00 0.00 0.00 36 1013.0
20260501200357 16 149 0.0 8.0 0.00 0.00 0.00 35 1013.0
20260501195855 17 174 3.2 8.0 0.00 0.00 0.00 36 1013.1
20260501195350 16 159 1.6 8.0 0.00 0.00 0.00 35 1013.0
20260501194846 16 154 11.3 12.9 0.00 0.00 0.00 36 1013.0
20260501194342 16 151 6.4 11.3 0.00 0.00 0.00 37 1013.3
20260501193838 16 303 4.8 12.9 0.00 0.00 0.00 35 1013.4
20260501193337 17 170 9.7 14.5 0.00 0.00 0.00 36 1013.3
20260501192835 16 167 6.4 11.3 0.00 0.00 0.00 38 1013.1
20260501192331 16 260 4.8 8.0 0.00 0.00 0.00 37 1013.4
20260501191828 15 139 1.6 9.7 0.00 0.00 0.00 38 1013.6